Helicity
169 115 7 21 13 17 34 33 45 24 60 64 41 26 50 29 30 71 117 146 158 152 163 181 207 227 243 265 254 255 252 231 199 144 102 78 85 102 112 108 100 89 87 78
54 69 59 36 14 2 28 25 19 19 44 103 155 133 95 49 61 83 103 149 133 136 179 204 216 226 258 253 267 257 244 207 145 99 76 82 98 115 115 104 83 82 83 91
55 40 61 52 32 35 19 -18 10 31 2 47 122 90 61 73 73 89 109 118 126 158 189 209 210 218 227 267 274 260 219 165 108 76 85 109 123 116 93 81 83 92 99 113
120 81 44 82 73 8 23 33 27 -1 27 106 83 70 142 151 110 141 155 147 160 196 200 213 224 229 286 280 262 228 184 122 69 83 113 128 108 93 93 101 101 111 118 130
91 58 109 54 26 58 61 29 -0 7 32 101 222 231 195 277 291 244 220 204 193 183 193 207 218 259 260 251 230 195 167 87 88 117 124 112 99 101 95 109 112 119 129 119
41 47 51 58 26 31 35 62 38 24 47 181 179 117 142 225 222 233 224 188 171 169 178 193 234 224 232 237 210 203 116 93 112 119 111 100 98 94 104 110 125 132 113 110
32 56 45 13 26 35 55 64 39 55 117 155 93 201 249 210 224 191 165 145 142 149 174 215 200 217 232 216 202 126 99 119 124 100 103 97 94 101 117 121 118 112 111 118
61 74 4 33 54 75 57 47 27 64 94 189 226 227 228 195 159 128 124 128 136 175 182 182 197 208 223 190 138 113 132 129 114 97 96 99 109 116 114 110 115 117 121 127
47 37 60 50 101 84 52 50 61 118 138 165 178 173 152 134 112 99 103 126 123 145 172 185 184 178 175 178 139 134 127 111 99 96 100 110 115 112 117 113 121 136 140 142
71 29 51 48 68 60 88 94 104 125 136 130 143 119 112 96 96 105 100 104 120 146 169 186 166 163 182 158 127 123 111 108 109 109 105 95 119 121 126 140 153 148 150 158
81 44 48 48 65 97 147 175 196 178 143 126 123 125 120 112 92 84 95 117 132 165 174 181 177 177 147 128 120 113 117 117 108 107 101 96 111 127 135 125 155 154 145 149
44 46 58 53 123 161 214 226 205 203 200 163 128 122 108 91 89 100 119 134 163 188 198 189 156 143 125 115 115 127 124 116 108 108 104 119 132 141 109 100 102 104 81 99
80 75 121 108 168 199 249 238 201 183 157 162 141 100 84 89 96 121 148 166 178 181 176 160 138 124 125 131 133 124 110 97 108 100 109 121 129 141 144 143 110 87 77 76
126 172 155 144 210 251 260 249 219 188 157 127 102 87 92 111 124 138 150 163 183 181 165 142 132 138 146 139 126 105 92 78 102 110 126 135 150 157 164 169 161 157 110 74
151 148 115 196 251 276 251 227 206 162 125 105 94 94 95 106 129 144 166 175 176 158 146 152 158 152 146 128 113 100 105 107 117 129 128 132 146 159 161 157 154 154 142 107
238 228 207 243 269 264 227 178 148 122 95 88 86 91 102 118 136 147 144 141 136 140 162 166 158 149 141 124 109 103 101 92 109 127 145 141 147 156 153 156 153 154 140 133
279 225 236 230 225 194 149 117 104 90 91 91 103 105 113 126 126 121 122 135 156 183 180 163 152 153 134 123 112 109 116 125 112 142 145 146 148 138 157 153 146 147 144 133
173 166 134 192 181 150 136 130 114 103 100 99 99 96 92 81 87 110 134 158 173 171 159 151 156 149 128 124 118 117 125 138 150 145 142 138 143 150 139 142 138 137 146 134
192 186 189 187 160 158 137 120 104 101 96 89 91 73 74 88 108 138 158 158 160 159 164 185 175 135 125 123 127 127 130 133 135 140 144 121 142 137 132 132 135 136 135 132
302 230 228 217 155 133 128 100 93 97 94 88 89 96 103 117 136 153 153 141 165 209 210 171 144 129 128 121 120 123 115 122 133 141 148 140 135 128 126 110 119 138 131 120
254 243 231 189 163 132 109 92 88 86 90 100 107 120 129 137 141 151 152 150 195 198 169 147 139 136 136 121 118 119 125 131 141 141 140 137 125 127 133 131 135 132 119 114
245 217 169 128 116 108 97 94 99 106 115 127 138 141 141 144 150 148 165 185 189 172 152 136 133 144 115 99 116 114 128 135 135 138 139 130 133 136 130 125 124 115 110 97
198 140 109 104 89 86 89 92 109 125 139 142 141 138 140 149 144 142 155 181 173 159 134 126 125 104 97 108 105 120 129 123 129 131 132 132 133 128 128 128 111 82 93 16
134 117 103 89 80 83 107 120 147 160 166 169 173 164 153 157 177 182 182 165 151 137 116 105 96 84 82 101 111 121 122 125 132 135 129 95 125 127 118 102 48 57 28 1
111 101 95 98 108 121 140 140 156 159 172 181 187 189 188 192 189 169 159 143 126 112 99 82 79 77 93 102 115 122 126 122 119 120 124 130 122 106 91 52 -31 -2 -9 -11
103 107 110 128 125 123 126 130 154 161 162 168 170 168 173 168 160 145 132 117 99 85 85 82 83 88 99 108 111 110 110 112 116 121 113 115 107 100 91 -42 -34 -18 -6 4
133 119 113 124 133 141 151 159 161 159 147 146 172 169 163 153 144 129 109 96 87 82 78 81 89 97 109 108 103 100 106 110 98 107 103 104 97 92 -4 -37 -18 -3 6 27
Wind_Speed
43 36 40 52 63 57 74 71 62 57 58 40 34 37 35 28 18 13 11 12 14 14 13 14 18 22 24 28 32 36 42 49 55 59 62 64 66 68 69 71 73 75 79 80
53 49 52 61 68 70 68 73 74 72 64 53 44 35 35 28 19 16 16 16 16 14 15 17 19 23 25 28 33 38 44 50 55 59 63 66 68 70 72 74 76 78 81 84
45 41 45 64 74 69 77 87 72 67 68 59 45 41 36 27 23 23 21 19 18 17 18 20 22 21 25 29 33 39 46 52 57 61 66 68 70 72 73 76 78 81 83 85
43 35 52 47 39 56 65 63 52 78 64 52 37 31 30 33 30 25 22 18 17 19 19 19 19 22 27 30 35 42 48 54 59 64 67 69 69 71 75 78 81 84 85 87
45 48 51 52 42 41 40 61 81 67 45 37 23 22 32 29 24 22 20 19 19 18 18 19 21 24 26 31 38 44 52 58 62 65 66 67 71 74 77 81 83 85 86 89
44 46 43 37 36 34 29 48 39 30 32 17 11 33 28 19 19 20 21 21 19 18 20 20 22 22 28 36 43 49 55 60 61 62 63 68 72 77 79 81 84 86 89 88
59 51 51 37 31 23 34 37 31 22 13 10 15 32 8 12 18 20 21 21 20 21 21 22 23 27 34 40 47 51 56 59 58 60 65 69 73 77 80 84 87 90 92 90
52 53 56 29 26 35 34 29 23 17 11 10 13 13 13 15 18 20 22 21 22 22 23 25 28 33 40 45 48 53 55 56 58 63 67 71 76 78 81 86 90 92 93 91
52 51 34 31 33 33 28 22 19 15 12 8 10 14 15 17 19 20 20 21 21 23 25 30 33 37 43 46 50 52 53 56 61 66 70 73 79 83 87 87 91 93 92 92
39 38 35 33 34 31 18 17 14 14 12 13 13 14 16 18 20 21 21 23 24 25 30 34 36 40 44 46 46 49 54 60 65 71 74 75 76 81 85 89 90 89 91 91
44 38 35 37 29 15 13 13 14 16 17 16 16 19 21 23 23 24 25 26 27 31 34 37 38 41 41 41 45 51 58 65 71 73 77 79 79 81 84 81 82 86 86 86
39 33 38 26 9 8 9 11 12 14 18 22 21 22 23 25 27 28 29 29 32 34 35 36 37 37 38 41 47 55 64 68 71 75 77 79 83 85 78 80 81 80 80 80
34 17 32 14 8 7 8 10 14 18 20 21 24 24 25 28 32 32 32 33 34 35 34 34 34 36 39 45 50 56 63 68 72 76 78 82 84 86 93 87 81 80 81 81
22 17 24 13 16 8 8 12 16 19 21 21 22 24 28 31 32 33 34 33 32 32 32 32 35 40 43 48 52 56 62 68 72 76 80 82 83 85 85 89 92 89 82 84
27 39 25 14 6 7 8 10 13 16 18 21 25 28 30 32 34 35 33 32 30 30 32 35 40 45 45 49 54 61 67 69 73 77 79 81 81 83 83 84 86 86 87 85
28 25 15 10 7 6 7 11 13 15 18 21 26 31 34 36 36 34 31 28 30 33 36 39 43 45 48 52 59 64 68 72 75 78 80 81 81 83 83 83 84 84 83 81
15 19 14 10 4 3 7 11 13 15 20 26 30 33 35 36 34 31 30 30 33 38 39 40 45 47 50 54 62 67 71 74 77 77 79 80 81 80 81 81 79 78 74 70
26 19 11 3 1 2 7 12 16 20 25 28 31 33 34 32 33 33 33 34 36 38 40 41 45 49 54 58 64 69 72 75 77 78 79 79 78 78 77 76 75 74 70 67
14 9 7 4 4 5 8 13 18 23 27 29 31 33 33 35 36 36 34 35 38 42 44 43 48 54 58 62 67 70 74 76 76 78 77 77 77 75 73 72 70 68 66 62
4 4 4 6 7 8 11 17 21 26 29 31 32 35 36 37 37 36 35 37 40 45 46 49 53 58 62 65 69 72 73 75 77 77 75 75 74 72 71 68 66 64 61 51
5 6 6 7 9 13 17 20 24 28 31 33 36 38 39 38 37 37 39 43 44 45 48 54 58 61 64 68 72 73 74 75 76 74 74 72 70 69 67 64 62 59 48 42
7 7 7 8 11 16 21 25 28 31 34 37 39 39 39 39 39 40 44 47 47 50 54 57 59 63 69 73 72 72 73 73 71 70 69 68 68 65 63 61 58 47 40 29
6 7 9 11 15 19 24 29 33 37 39 40 40 40 40 42 42 45 49 48 50 54 58 59 62 68 72 72 71 72 72 69 69 67 66 66 63 60 58 54 49 26 23 41
8 9 12 16 18 23 29 36 39 40 40 41 41 41 41 43 46 47 48 51 55 59 61 63 66 70 73 71 70 69 68 68 67 66 64 60 58 58 55 44 19 17 33 49
10 14 18 21 26 32 34 36 37 39 40 41 42 43 44 46 48 49 52 54 57 61 63 65 68 69 69 69 68 68 67 66 64 64 61 59 58 54 45 23 40 37 49 45
17 22 26 31 33 33 34 35 39 39 39 40 42 44 46 47 49 51 53 56 59 61 63 66 67 69 69 68 68 67 66 66 64 61 59 57 52 51 47 52 49 49 48 43
24 26 29 32 35 35 36 37 38 39 40 41 43 44 46 49 51 53 56 58 61 63 65 67 68 68 68 68 67 66 65 63 60 60 58 56 51 46 36 53 50 49 45 42
Wind_Direction
244 242 236 232 232 243 240 243 252 259 258 269 281 292 299 307 304 285 271 266 268 276 288 302 313 321 326 330 334 338 339 339 339 341 342 342 342 342 342 341 340 339 337 337
244 251 243 240 238 242 247 248 253 257 261 279 287 293 300 301 295 285 282 279 279 284 295 304 313 319 325 331 334 338 339 339 340 341 341 341 341 341 340 340 339 338 337 336
258 259 260 253 245 250 245 235 254 263 266 271 283 288 295 299 297 292 289 288 288 295 302 309 316 323 326 331 337 339 339 340 341 341 340 341 341 340 340 339 338 337 337 336
260 264 261 272 283 261 259 265 269 258 272 280 283 290 299 302 300 301 302 301 305 309 314 322 328 330 333 338 339 339 340 340 340 340 340 340 341 340 340 339 338 338 337 337
255 259 264 271 275 274 266 266 246 261 275 284 285 297 302 310 315 316 320 323 326 330 331 332 331 334 339 340 340 339 339 339 339 340 340 341 341 340 340 339 338 338 337 336
253 259 267 279 289 287 286 280 286 271 274 265 272 287 301 309 316 325 332 336 339 343 340 339 342 346 342 339 338 337 338 339 340 342 342 341 341 340 340 339 338 338 337 337
238 248 255 285 296 307 282 292 314 304 287 268 281 302 321 326 328 336 339 346 347 347 346 347 348 345 340 338 337 339 339 341 343 343 342 342 341 341 340 339 338 337 337 338
252 255 258 299 297 284 298 317 326 333 328 312 319 334 341 336 337 337 337 348 349 349 350 349 346 342 338 337 339 341 342 343 343 343 343 342 341 341 341 339 339 338 338 338
248 256 286 292 299 304 314 320 330 346 353 3 340 331 337 339 344 346 352 352 354 350 348 345 342 341 338 340 341 343 344 344 343 343 343 343 341 340 340 340 340 339 339 339
272 280 291 293 294 303 328 335 355 11 14 6 1 355 354 353 350 349 350 347 347 346 340 339 341 341 341 343 345 346 345 344 344 343 343 343 343 341 341 340 340 340 340 339
267 278 283 282 294 329 2 17 17 10 7 8 7 353 348 344 344 344 343 343 342 339 337 339 342 343 346 348 348 346 345 343 342 342 342 342 342 342 341 341 341 339 339 339
277 274 275 298 337 5 16 17 16 14 1 355 357 351 349 344 340 338 337 339 337 339 340 342 345 348 350 350 348 346 343 343 343 342 343 343 342 342 343 342 341 340 339 339
277 297 290 336 360 9 3 359 352 348 348 346 344 345 346 340 334 337 339 338 337 339 344 347 350 350 351 350 348 346 343 342 343 343 343 343 343 342 341 343 343 343 342 342
297 312 312 330 317 345 354 353 356 352 350 349 350 351 344 341 341 340 339 341 345 347 349 351 350 348 350 349 347 345 343 342 342 342 342 342 343 342 342 342 342 343 344 343
287 292 309 325 349 335 348 354 349 347 348 348 347 344 344 343 341 340 344 347 349 351 349 349 347 346 349 347 345 343 342 342 342 342 342 342 342 342 342 342 342 342 344 345
292 306 323 319 316 322 332 335 338 342 346 346 344 342 342 342 342 344 348 352 349 345 345 345 345 347 347 345 343 342 342 342 342 342 342 342 343 343 343 343 343 344 345 347
291 300 307 308 298 316 326 335 344 346 343 340 341 343 343 343 346 348 349 350 346 344 346 345 344 346 345 344 342 342 342 342 341 342 342 343 342 343 343 343 345 346 348 351
294 305 299 275 217 318 331 340 343 342 339 342 343 345 345 347 346 345 345 346 345 344 344 344 344 344 343 343 342 341 341 341 341 341 342 342 343 343 344 345 346 347 350 352
296 312 319 319 326 339 351 347 342 343 343 345 346 345 346 345 345 346 347 345 342 340 341 344 344 343 342 342 342 341 341 340 341 341 342 342 343 344 346 347 348 349 351 354
319 5 40 41 26 13 358 348 347 345 347 348 348 346 344 345 346 346 346 342 341 342 344 343 343 341 341 342 341 341 340 340 340 341 342 343 344 345 347 348 349 351 353 356
90 75 66 41 17 1 354 350 348 347 347 346 344 342 343 345 347 346 343 340 343 345 344 342 341 341 342 341 340 339 340 340 341 342 342 344 345 346 348 349 351 353 355 357
85 72 41 22 3 352 348 348 348 347 345 343 343 344 345 345 345 344 343 341 344 344 343 342 342 342 340 339 340 339 340 341 342 342 343 345 346 347 348 350 352 355 358 351
59 35 14 358 351 349 347 344 341 340 340 342 343 343 344 344 344 342 340 345 344 343 342 342 341 340 340 340 340 340 341 342 342 343 344 345 346 348 348 351 354 349 345 285
27 5 356 351 349 343 337 334 337 339 343 344 344 346 345 344 345 347 347 345 343 343 341 341 340 340 340 340 341 342 342 342 343 344 345 345 347 347 349 353 316 310 280 285
1 348 340 338 334 331 334 337 340 342 343 345 346 347 348 348 346 346 345 344 343 343 342 341 341 341 342 342 342 342 343 343 344 344 345 346 347 348 350 335 274 273 281 280
336 330 329 327 329 332 336 338 337 340 343 343 345 346 347 348 348 347 346 344 343 343 342 342 342 342 342 343 343 343 344 344 344 346 345 346 347 347 349 277 272 273 274 273
330 331 331 332 333 335 336 338 340 340 342 343 344 347 347 347 347 346 344 343 343 343 342 342 342 343 343 343 344 344 344 345 345 346 347 347 349 350 284 276 270 269 266 265